www.pogodaiklimat.ru

Погода и климат >> Архив погоды >> Гана >> Akuse


ПОГОДА в Akuse

  • Прогноз погоды в Akuse
  • Монитор погоды в Akuse
  • Климат города

АРХИВ ПОГОДЫ в Akuse

Время (UTC), дата Ветер
(напр.,м/с)
 
Видим.   Явления Облачность Т
(С)
Тd
(С)
f
(%)
Тe
(С)
Тes
(С)
Комфортность P
(гПа)
Po
(гПа)
Тmin
(С)
Tmax
(С)
R
(мм)
R24
(мм)
S
(см)
12 11.12 штиль 0 8000 м мгла 9/0
[Cs]
+30.5 +22.0 61 +39 +58 опасность
солнечного
удара
1011.6 1012.0
15 11.12 штиль 0 6000 м мгла ясно +32.4 +20.9 51 +40 +51 опасность
солнечного
удара
1009.4 1009.0
18 11.12 штиль 0 6000 м дымка ясно +28.0 +24.9 83 +40 +40 очень
душно
1010.2 1010.0 +32.5
21 11.12 штиль 0 8000 м дымка ясно +23.0 +23.9 100 +32 +32 очень
душно
1012.4 1012.0
06 12.12 штиль 0 8000 м дымка ясно +23.8 +22.4 92 +31 +31 очень
душно
1010.9 1011.0 +23.5
09 12.12 ЮЗ 2 8000 м дымка 9/0
[Cs]
+27.0 +23.9 83 +37 +44 очень
душно
1013.7 1014.0
12 12.12 СЗ 1 8000 м мгла 9/0
[Cs]
+32.5 +25.0 65 +46 +64 опасность
перегрева
1011.6 1012.0
15 12.12 штиль 0 8000 м мгла 9/0
[Cs]
+33.5 +23.3 55 +44 +53 опасность
перегрева
1009.8 1010.0
18 12.12 ЮВ 1 8000 м мгла 9/0
[Cs]
+29.5 +23.5 70 +40 +40 очень
душно
1011.3 1011.0 +33.5
21 12.12 штиль 0 8000 м дымка 9/0
[Cs]
+26.6 +24.8 90 +38 +38 очень
душно
1013.3 1013.0
00 13.12 штиль 0 8000 м дымка 9/0
[Cs]
+26.0 +24.3 90 +36 +36 очень
душно
1012.6 1013.0
06 13.12 штиль 0 8000 м дымка 9/0
[Cs]
+24.5 +23.5 94 +33 +33 очень
душно
1011.9 1012.0 +24.0
09 13.12 штиль 0 8000 м дымка 9/0
[Cs]
+27.5 +24.7 85 +39 +48 очень
душно
1013.7 1014.0
12 13.12 штиль 0 8000 м мгла 9/0
[Cs]
+32.2 +23.6 61 +44 +62 опасность
перегрева
1011.9 1012.0
15 13.12 штиль 0 8000 м мгла 9/0
[Cs]
+34.0 +23.9 56 +46 +55 опасность
перегрева
1009.2 1009.0
18 13.12 штиль 0 6000 м мгла 9/0
[Cs]
+29.5 +25.0 77 +43 +43 опасность
перегрева
1010.5 1011.0 +34.1
21 13.12 штиль 0 8000 м дымка 9/0
[Cs]
+27.4 +25.1 87 +39 +39 очень
душно
1013.4 1013.0
00 14.12 штиль 0 8000 м дымка 9/0
[Cs]
+26.0 +24.3 90 +36 +36 очень
душно
1011.9 1012.0
03 14.12 штиль 0 6000 м дымка 9/0
[Cs]
+25.5 +23.8 90 +35 +35 очень
душно
1010.5 1011.0
12 14.12 штиль 0 8000 м мгла 9/3 450 м
[Cu med, cong Cs]
+33.5 +24.1 58 +45 +59 опасность
перегрева
1011.2 1011.0
15 14.12 Ю 1 8000 м мгла 9/0
[Cs]
+34.7 +23.6 53 +46 +54 опасность
перегрева
1009.2 1009.0
21 14.12 штиль 0 8000 м дымка 8/0
[Cs]
+25.8 +24.4 92 +36 +36 очень
душно
1013.0 1013.0
00 15.12 штиль 0 8000 м дымка ясно +25.5 +24.5 94 +36 +36 очень
душно
1013.9 1014.0
03 15.12 штиль 0 8000 м дымка ясно +24.8 +23.7 94 +34 +34 очень
душно
1011.5 1012.0
09 15.12 ЮЗ 2 8000 м дымка 5/0
[Ci sp]
+28.5 +24.7 80 +41 +49 опасность
перегрева
1014.0 1014.0
12 15.12 СВ 2 8000 м мгла 9/0
[Cs]
+34.0 +23.9 56 +46 +61 опасность
перегрева
1011.4 1011.0
21 15.12 штиль 0 8000 м дымка 9/0
[Cs]
+27.3 +25.2 88 +39 +39 очень
душно
1011.7 1012.0
09 16.12 СЗ 1 8000 м мгла 9/0
[Cs]
+30.0 +25.5 77 +44 +52 опасность
перегрева
1012.2 1012.0
12 16.12 ЮЗ 1 8000 м мгла 9/4 480 м
[Cu med, cong Cs]
+33.0 +25.8 66 +48 +58 опасность
перегрева
1010.4 1010.0
18 16.12 Ю 1 8000 м мгла 9/0
[Ac trans]
+31.0 +25.1 71 +45 +45 опасность
перегрева
1009.5 1010.0 +34.0
00 17.12 штиль 0 8000 м дымка 9/0
[Cs]
+27.5 +25.8 90 +41 +41 опасность
перегрева
1011.6 1012.0
06 17.12 штиль 0 8000 м дымка 9/0
[Ac trans]
+25.5 +23.1 87 +34 +34 очень
душно
1010.7 1011.0 +24.0
12 17.12 СВ 2 8000 м мгла 9/4 420 м
[Cu med, cong Ac trans]
+33.3 +24.6 60 +46 +51 опасность
перегрева
1011.3 1011.0
18 17.12 ЮВ 2 8000 м мгла 9/5 360 м
[Sc Ac trans]
+28.9 +24.5 77 +41 +41 опасность
перегрева
1010.0 1010.0 +35.5
21 17.12 штиль 0 8000 м мгла 9/0
[Cs]
+27.0 +22.4 76 +35 +35 очень
душно
1012.2 1012.0
00 18.12 штиль 0 8000 м дымка 5/0
[Ci sp]
+26.0 +23.9 88 +36 +36 очень
душно
1012.1 1012.0
06 18.12 штиль 0 8000 м дымка 9/4 360 м
[Sc Ac trans]
+24.5 +23.2 92 +33 +33 очень
душно
1011.3 1011.0 +24.5

 

Местоположение метеостанции Akuse (Гана): широта 6.10 долгота 0.12 высота над уровнем моря 19 м.

В архиве по умолчанию представлена погода в Akuse за последнюю неделю. Архивные данные за месяц целиком и за предыдущие месяцы, начиная с января 2011 года, Вы можете получить, выбрав интересующий диапазон дат из раскрывающегося списка и нажав кнопку "Ввод!".

Внимание! Время в таблицах - всемирное. Для получения местного времени необходимо прибавить поправку, которая в Akuse равна 1 ч.

Смотрите также архив погоды в соседних городах и на ближайших метеорологических станциях:

Погода в Koforidua (Гана) (41 км)
Погода в Tema (Гана) (55 км)
Погода в Accra (Гана) (64 км)
Погода в Ada (Гана) (67 км)
Погода в Ho (Гана) (68 км)
Погода в Akatsi (Гана) (75 км)
Погода в Abetifi (Гана) (115 км)
Погода в Akim Oda (Гана) (123 км)
Погода в Lome (Того) (125 км)
Погода в Tabligbo (Того) (162 км)

Пояснения к столбцам:

Ветер - указаны скорость ветра в м/с - средняя за 10 мин, порывы в срок и между сроками (в фигурных скобках) и направление, откуда дует ветер: С - северный, СВ - северо-восточный, В - восточный, ЮВ - юго-восточный, Ю - южный, ЮЗ - юго-западный, З - западный, СЗ - северо-западный.
Видимость - горизонтальная дальность видимости в метрах или километрах. При видимости от 1 до 10 км при отсутствии осадков обычно наблюдается дымка, при ухудшении видимости до 1 км и менее - туман. В сухую погоду видимость может ухудшаться дымом, пылью или мглою.
Явления - указаны атмосферные явления, наблюдавшиеся в срок или в последний час перед сроком; фигурными скобками обозначены явления, наблюдавшиеся между сроками (за 1-3 часа до срока); квадратными скобками обозначены град или гололедные отложения с указанием их диаметра в мм.
Облачность - указаны через наклонную черту общая и нижняя облачность в баллах и высота нижней границы облаков в метрах; квадратными скобками обозначены формы облаков: Ci - перистые, Cs - перисто-слоистые, Cc - перисто-кучевые, Ac - высококучевые, As - высокослоистые, Sc - слоисто-кучевые, Ns - слоисто-дождевые, Cu - кучевые, Cb - кучево-дождевые. Подробнее классификацию облаков см. в Атласе облаков (PDF).
T - Температура воздуха - температура, измеренная на высоте 2 м над землей.
Td - Температура точки росы - температура, при понижении до которой содержащийся в воздухе водяной пар достигнет насыщения.
f - Относительная влажность воздуха - влажноcть воздуха, измеренная на высоте 2 м над землей.
Te - Эффективная температура - температура, которую ощущает одетый по сезону человек в тени. Характеристика душности погоды. При расчете учитывается влияние влажности воздуха и скорости ветра на теплоощущения человека.
Tes - Эффективная температура на солнце - температура, которую ощущает человек, с поправкой на солнечный нагрев. Характеристика знойности погоды. Зависит от высоты солнца над горизонтом, облачности и скорости ветра. Ночью, в пасмурную погоду, а также при ветре 12 м/с и более поправка равна нулю.
P - Атмосферное давление - приведенное к уровню моря атмосферное давление.
Po - Атмосферное давление - измеренное на уровне метеостанции атмосферное давление.
Tmin - Минимальная температура - минимум температуры воздуха на высоте 2 м над землей.
Tmax - Максимальная температура - максимум температуры воздуха на высоте 2 м над землей.
R - Количество осадков - Количество выпавших осадков за период времени, мм. При наведении курсора мыши на число - период времени, за который выпало указанное количество осадков.
R24 - Количество осадков - Количество выпавших осадков за 24 часа, мм.
S - Снежный покров - Высота снежного покрова, см. При наведении курсора мыши на число - состояние снежного покрова и степень покрытия местности в баллах.